Regional Weather Roundup
Issued by NWS

Home | Current Version | Previous Version | Graphics & Text | Print | Product List | Glossary On
Versions: 1 2 3 4 5 6 7 8 9 10 11 12 13 14 15 16 17 18 19 20 21 22 23 24 25 26 27
000
ASUS45 KCYS 230910
RWRWY

WYOMING REGIONAL WEATHER ROUNDUP
NATIONAL WEATHER SERVICE CHEYENNE WY
300 AM MDT SUN JUL 23 2017

NOTE:  "FAIR" INDICATES FEW OR NO CLOUDS BELOW 12,000 FEET
WITH NO SIGNIFICANT WEATHER AND/OR OBSTRUCTIONS TO VISIBILITY.

WYZ001-231000-
YELLOWSTONE NATIONAL PARK

CITY           SKY/WX    TMP DP  RH WIND       PRES   REMARKS
LK YELLOWSTONE   N/A     42  35  76 NW3       30.40F
W YELLOWSTONE  NOT AVBL

$$
WYZ002>013-054>058-071-098>099-231000-
NORTHERN WYOMING

CITY           SKY/WX    TMP DP  RH WIND       PRES   REMARKS
JACKSON        FAIR      46  39  76 N8        30.29F
CODY           FAIR      66  35  31 SW8       30.19F
GREYBULL       FAIR      61  39  44 SE5       30.09S
WORLAND        FAIR      59  36  42 S6        30.11S
SHERIDAN       FAIR      58  42  55 N3        30.11F
BUFFALO        FAIR      63  33  32 W9        30.18F
GILLETTE       FAIR      62  37  39 S5        30.14F
HULETT         FAIR      64  37  36 CALM      30.15F
NEWCASTLE      FAIR      61  36  39 S3        30.15S

$$
WYZ014>020-022>026-101>103-231000-
CENTRAL WYOMING

CITY           SKY/WX    TMP DP  RH WIND       PRES   REMARKS
BIG PINEY      FAIR      49  35  58 E5        30.32S
PINEDALE       FAIR      45  37  76 W6        30.32F
DUBOIS         FAIR      52  32  46 NW8       30.34S
LANDER         FAIR      67  33  28 W10       30.22S
RIVERTON       FAIR      67  32  27 SE7       30.20S
CASPER         FAIR      54  35  48 W5        30.19S
DOUGLAS        FAIR      59  51  75 NE3       30.16F

$$
WYZ021-027>030-104>119-231000-
SOUTHERN WYOMING

CITY           SKY/WX    TMP DP  RH WIND       PRES   REMARKS
EVANSTON       FAIR      66  34  30 SE3       30.31F
KEMMERER         N/A     52  32  46 NW10      30.32F
FORT BRIDGER   FAIR      64  29  27 SW7       30.33S
ROCK SPRINGS   FAIR      64  29  26 S6        30.26F
RAWLINS        FAIR      59  35  40 NE10      30.28F
SARATOGA       FAIR      54  39  58 SE5       30.31S
LARAMIE        FAIR      51  46  83 S9        30.33F
CHEYENNE       FAIR      59  49  69 CALM      30.25F
TORRINGTON     FAIR      63  53  70 SE8       30.11F
PINE BLUFFS    FAIR      55  48  76 W5        30.21S

$$




USA.gov is the U.S. government's official web portal to all federal, state and local government web resources and services.